DELTA 1 DEB, 10765

Orbit data source: Space-Track

DELTA 1 DEB, 10765 is space debris in SSO originally from a launch on Thu, 29 Jul 1976 UTC launched from the Air Force Western Test Range (AFWTR). Debris objects in space refer to the collection of defunct objects orbiting the Earth. Examples of debris include non-operational satellites, rocket bodies, and fragments generated from explosions, collisions, or faulty payload assembly.

Loading next visibility...
Identifier
10765, 1976-077BN
Orbit
SSO
Country
Flag of USUS
Related business
Manufacturer
Unknown
Mission
Spacecraft
Bus & Motor
Unknown
Mass
Unknown
Launch date (UTC)
1976-07-29 (50 years ago)
Launch vehicle
Unknown
Launch site
Air Force Western Test Range (AFWTR)
Object type
Payload
Rocket body
Debris
Shape & HBR
Unknown shape, 0.5 m
Radar Cross Section
Medium (>0.1 m² and <1 m²)

Expand to show TLE details & history
Last TLE update: 8 hours ago

TLE from 8 hours ago
0 DELTA 1 DEB
1 10765U 76077BN  26171.45830045 -.00000043  00000-0 -14530-4 0  9998
2 10765 101.9986   8.4730 0130769 358.4289 114.7236 12.16526205216959
Epoch: 2026-06-20T10:59Z
TLE epoch observation values (Epoch: 2026-06-20T10:59:57.158Z)
Latitude
62.96557°
Longitude
139.29997°
Altitude
1,663.133 km
Speed
7.028 km/s
True Right ascension
14h 11m 50s
True Declination
62° 50' 31"
Sunlit
Object was in daylight at epoch
Visualization orbit readout
Latitude
Unknown
Longitude
Unknown
Altitude
Unknown
Speed
Unknown
Apparent Right ascension
Unknown
Apparent Declination
Unknown
Sunlit
N/A
Visualization observer readout
Local Sidereal Time
06:16:10
Azimuth
Unknown
Elevation
Unknown
Doppler factor
Unknown
Orbital elements
Apogee altitude
1,709.711 km
Perigee altitude
1,500.914 km
Semi-major axis
7,983.45 km
Eccentricity
0.01308
Inclination
101.9986°
RAAN
8.473°
Arg. of periapsis
358.4289°
True anomaly
116.07537°
Mean anomaly
114.7236°
Eccentric anomaly
115.40042°
Mean motion
3.04269 °/min
Orbital period
118.32 mins
BSTAR
-0.00001453
Loading maneuver chart data...
Computing Atmospheric mass density...
Loading historical data...
Loading historical data...
Loading historical data...
Loading historical data...
Loading historical data...
Loading historical data...
Loading historical data...

Documentation

Showing up to 5 results
|